| time (UTC) | temp C | wind direction | speed KPH | gust KPH | rain 1hr cm | rain 24hr cm | rain mn cm | humidity % | barometer mb |
| 20260509211521 | 13 | 157 | 9.7 | 25.7 | 0.00 | 1.14 | 1.14 | 89 | 1008.8 |
| 20260509210016 | 12 | 150 | 8.0 | 17.7 | 0.00 | 1.14 | 1.14 | 91 | 1009.0 |
| 20260509204514 | 12 | 156 | 6.4 | 14.5 | 0.00 | 1.14 | 1.14 | 91 | 1009.1 |
| 20260509203023 | 12 | 156 | 3.2 | 14.5 | 0.05 | 1.14 | 1.14 | 91 | 1009.3 |
| 20260509201510 | 12 | 156 | 3.2 | 11.3 | 0.08 | 1.14 | 1.14 | 91 | 1009.3 |
| 20260509200007 | 11 | 156 | 4.8 | 12.9 | 0.08 | 1.14 | 1.14 | 91 | 1009.6 |
| 20260509194506 | 11 | 157 | 6.4 | 16.1 | 0.10 | 1.14 | 1.14 | 92 | 1009.7 |
| 20260509193004 | 11 | 157 | 1.6 | 9.7 | 0.08 | 1.09 | 1.09 | 91 | 1009.8 |
| 20260509191604 | 11 | 157 | 3.2 | 9.7 | 0.10 | 1.07 | 1.07 | 91 | 1009.9 |
| 20260509190100 | 11 | 157 | 3.2 | 9.7 | 0.15 | 1.07 | 1.07 | 91 | 1010.1 |
| 20260509184601 | 11 | 157 | 4.8 | 12.9 | 0.13 | 1.04 | 1.04 | 91 | 1010.0 |
| 20260509183108 | 11 | 159 | 4.8 | 11.3 | 0.10 | 1.02 | 1.02 | 91 | 1010.0 |
| 20260509181558 | 11 | 158 | 6.4 | 14.5 | 0.05 | 0.94 | 0.94 | 91 | 1009.9 |
| 20260509180154 | 11 | 161 | 3.2 | 16.1 | 0.03 | 0.91 | 0.91 | 91 | 1010.0 |
| 20260509174553 | 11 | 158 | 4.8 | 12.9 | 0.03 | 0.91 | 0.91 | 90 | 1009.9 |
| 20260509173058 | 11 | 160 | 6.4 | 11.3 | 0.03 | 0.91 | 0.91 | 90 | 1009.9 |
| 20260509171550 | 11 | 162 | 6.4 | 14.5 | 0.00 | 0.89 | 0.89 | 90 | 1009.9 |
| 20260509170050 | 11 | 161 | 3.2 | 12.9 | 0.00 | 0.89 | 0.89 | 91 | 1009.9 |
| 20260509164550 | 11 | 161 | 4.8 | 16.1 | 0.03 | 0.89 | 0.89 | 91 | 1010.0 |
| 20260509163050 | 11 | 167 | 6.4 | 17.7 | 0.03 | 0.89 | 0.89 | 91 | 1010.1 |
| 20260509161547 | 11 | 158 | 3.2 | 14.5 | 0.03 | 0.89 | 0.89 | 91 | 1010.2 |
| 20260509160045 | 11 | 163 | 8.0 | 19.3 | 0.03 | 0.89 | 0.89 | 91 | 1010.3 |
| 20260509154545 | 11 | 153 | 8.0 | 16.1 | 0.03 | 0.86 | 0.86 | 91 | 1010.3 |
| 20260509153049 | 11 | 145 | 3.2 | 14.5 | 0.05 | 0.86 | 0.86 | 91 | 1010.5 |
| 20260509151540 | 11 | 158 | 3.2 | 9.7 | 0.08 | 0.86 | 0.86 | 92 | 1010.8 |
| 20260509150040 | 10 | 161 | 4.8 | 16.1 | 0.10 | 0.86 | 0.86 | 92 | 1011.0 |
| 20260509144532 | 10 | 140 | 4.8 | 19.3 | 0.10 | 0.84 | 0.84 | 92 | 1011.0 |
| 20260509143031 | 10 | 167 | 4.8 | 12.9 | 0.08 | 0.81 | 0.81 | 92 | 1011.2 |
| 20260509141530 | 10 | 159 | 4.8 | 9.7 | 0.08 | 0.79 | 0.79 | 92 | 1011.1 |
| 20260509140034 | 10 | 161 | 1.6 | 8.0 | 0.05 | 0.76 | 0.76 | 92 | 1011.1 |
| 20260509134524 | 10 | 161 | 0.0 | 4.8 | 0.05 | 0.71 | 0.71 | 92 | 1011.1 |
| 20260509133023 | 10 | 161 | 1.6 | 8.0 | 0.08 | 0.71 | 0.71 | 92 | 1011.2 |
| 20260509131524 | 10 | 161 | 0.0 | 4.8 | 0.10 | 0.71 | 0.71 | 92 | 1011.4 |
| 20260509130017 | 9 | 161 | 0.0 | 3.2 | 0.13 | 0.71 | 0.71 | 92 | 1011.5 |
| 20260509124514 | 9 | 161 | 0.0 | 1.6 | 0.15 | 0.69 | 0.69 | 92 | 1011.5 |
| 20260509123013 | 9 | 161 | 0.0 | 3.2 | 0.20 | 0.66 | 0.66 | 91 | 1011.6 |
| 20260509121513 | 9 | 161 | 0.0 | 4.8 | 0.18 | 0.61 | 0.61 | 91 | 1011.7 |
| 20260509120005 | 9 | 161 | 1.6 | 4.8 | 0.20 | 0.58 | 0.58 | 91 | 1011.8 |
| 20260509114504 | 8 | 161 | 3.2 | 11.3 | 0.18 | 0.53 | 0.53 | 91 | 1011.9 |
| 20260509113001 | 8 | 132 | 1.6 | 6.4 | 0.18 | 0.46 | 0.46 | 91 | 1011.8 |
| 20260509111600 | 8 | 132 | 0.0 | 8.0 | 0.23 | 0.43 | 0.43 | 91 | 1011.8 |
| 20260509110100 | 8 | 132 | 3.2 | 8.0 | 0.23 | 0.38 | 0.38 | 91 | 1011.8 |
| 20260509104559 | 8 | 130 | 3.2 | 11.3 | 0.20 | 0.36 | 0.36 | 91 | 1011.6 |
| 20260509103103 | 8 | 98 | 0.0 | 4.8 | 0.13 | 0.28 | 0.28 | 90 | 1011.8 |
| 20260509101602 | 8 | 98 | 1.6 | 4.8 | 0.05 | 0.20 | 0.20 | 90 | 1011.8 |
| 20260509100100 | 8 | 98 | 1.6 | 6.4 | 0.00 | 0.15 | 0.15 | 90 | 1011.7 |
| 20260509094556 | 8 | 149 | 4.8 | 12.9 | 0.00 | 0.15 | 0.15 | 90 | 1011.7 |
| 20260509093055 | 8 | 157 | 1.6 | 11.3 | 0.00 | 0.15 | 0.15 | 90 | 1011.6 |
| 20260509091554 | 8 | 157 | 6.4 | 11.3 | 0.00 | 0.15 | 0.15 | 90 | 1011.5 |
| 20260509090056 | 8 | 168 | 0.0 | 9.7 | 0.00 | 0.15 | 0.15 | 89 | 1011.7 |
| 20260509084552 | 8 | 169 | 3.2 | 6.4 | 0.03 | 0.15 | 0.15 | 89 | 1011.8 |
| 20260509083057 | 9 | 169 | 0.0 | 6.4 | 0.03 | 0.15 | 0.15 | 89 | 1012.0 |
| 20260509081549 | 9 | 169 | 0.0 | 6.4 | 0.03 | 0.15 | 0.15 | 89 | 1012.0 |
| 20260509080048 | 9 | 169 | 3.2 | 8.0 | 0.03 | 0.15 | 0.15 | 88 | 1012.4 |
| 20260509074551 | 9 | 170 | 3.2 | 8.0 | 0.03 | 0.13 | 0.13 | 88 | 1012.4 |
| 20260509073044 | 8 | 178 | 3.2 | 8.0 | 0.03 | 0.13 | 0.13 | 87 | 1012.4 |
| 20260509071546 | 8 | 196 | 0.0 | 3.2 | 0.05 | 0.13 | 0.13 | 85 | 1012.2 |
| 20260509070043 | 8 | 196 | 0.0 | 0.0 | 0.05 | 0.10 | 0.10 | 85 | 1012.3 |
| 20260509064540 | 8 | 196 | 0.0 | 3.2 | 0.08 | 0.10 | 0.10 | 84 | 1012.3 |
| 20260509063037 | 8 | 196 | 1.6 | 4.8 | 0.10 | 0.10 | 0.10 | 83 | 1012.4 |
| 20260509061536 | 8 | 196 | 0.0 | 1.6 | 0.08 | 0.08 | 0.08 | 82 | 1012.8 |
| 20260509060038 | 8 | 196 | 0.0 | 3.2 | 0.05 | 0.05 | 0.05 | 81 | 1012.9 |
| 20260509054532 | 7 | 196 | 0.0 | 3.2 | 0.00 | 0.00 | 0.00 | 81 | 1013.0 |
| 20260509053029 | 7 | 196 | 0.0 | 3.2 | 0.00 | 0.00 | 0.00 | 79 | 1013.0 |
| 20260509051528 | 7 | 196 | 0.0 | 1.6 | 0.00 | 0.00 | 0.00 | 78 | 1013.0 |
| 20260509050043 | 7 | 196 | 0.0 | 0.0 | 0.00 | 0.00 | 0.00 | 77 | 1012.9 |
| 20260509044526 | 7 | 196 | 0.0 | 3.2 | 0.00 | 0.00 | 0.00 | 77 | 1013.0 |
| 20260509043126 | 7 | 196 | 0.0 | 1.6 | 0.00 | 0.00 | 0.00 | 77 | 1013.0 |
| 20260509041523 | 7 | 196 | 1.6 | 3.2 | 0.00 | 0.00 | 0.00 | 77 | 1013.2 |
| 20260509040019 | 7 | 196 | 0.0 | 3.2 | 0.00 | 0.00 | 0.00 | 76 | 1013.3 |
| 20260509034519 | 7 | 196 | 0.0 | 0.0 | 0.00 | 0.00 | 0.00 | 75 | 1013.3 |
| 20260509033019 | 7 | 196 | 0.0 | 3.2 | 0.00 | 0.00 | 0.00 | 75 | 1013.2 |
| 20260509031529 | 6 | 196 | 0.0 | 1.6 | 0.00 | 0.00 | 0.00 | 74 | 1013.2 |
| 20260509030019 | 6 | 196 | 0.0 | 3.2 | 0.00 | 0.00 | 0.00 | 73 | 1013.3 |
| 20260509024532 | 7 | 196 | 0.0 | 0.0 | 0.00 | 0.00 | 0.00 | 73 | 1013.4 |
| 20260509023018 | 7 | 196 | 0.0 | 0.0 | 0.00 | 0.00 | 0.00 | 72 | 1013.3 |
| 20260509021518 | 7 | 196 | 0.0 | 0.0 | 0.00 | 0.00 | 0.00 | 71 | 1013.3 |
| 20260509020016 | 8 | 196 | 0.0 | 0.0 | 0.00 | 0.00 | 0.00 | 70 | 1013.4 |
| 20260509014518 | 8 | 196 | 0.0 | 3.2 | 0.00 | 0.00 | 0.00 | 68 | 1013.3 |
| 20260509013024 | 8 | 196 | 0.0 | 0.0 | 0.00 | 0.00 | 0.00 | 68 | 1013.2 |
| 20260509011518 | 10 | 196 | 0.0 | 0.0 | 0.00 | 0.00 | 0.00 | 64 | 1013.0 |
| 20260509010022 | 10 | 196 | 0.0 | 0.0 | 0.00 | 0.00 | 0.00 | 63 | 1012.9 |
| 20260509004514 | 11 | 196 | 0.0 | 0.0 | 0.00 | 0.00 | 0.00 | 60 | 1012.6 |
| 20260509003014 | 11 | 196 | 0.0 | 1.6 | 0.00 | 0.00 | 0.00 | 59 | 1012.4 |
| 20260509001513 | 12 | 196 | 0.0 | 1.6 | 0.00 | 0.00 | 0.00 | 57 | 1012.3 |
| 20260509000015 | 13 | 196 | 0.0 | 1.6 | 0.00 | 0.00 | 0.00 | 52 | 1012.1 |
| 20260508234512 | 13 | 196 | 0.0 | 0.0 | 0.00 | 0.00 | 0.00 | 51 | 1012.0 |
| 20260508233012 | 13 | 196 | 0.0 | 3.2 | 0.00 | 0.00 | 0.00 | 48 | 1011.7 |
| 20260508231611 | 14 | 196 | 1.6 | 4.8 | 0.00 | 0.00 | 0.00 | 45 | 1011.6 |
| 20260508230010 | 14 | 196 | 0.0 | 3.2 | 0.00 | 0.00 | 0.00 | 43 | 1011.6 |
| 20260508224509 | 15 | 196 | 0.0 | 6.4 | 0.00 | 0.00 | 0.00 | 44 | 1011.6 |
| 20260508223019 | 15 | 192 | 0.0 | 6.4 | 0.00 | 0.00 | 0.00 | 42 | 1011.7 |
| 20260508221509 | 15 | 278 | 0.0 | 11.3 | 0.00 | 0.00 | 0.00 | 42 | 1011.5 |
| 20260508220020 | 15 | 293 | 1.6 | 12.9 | 0.00 | 0.00 | 0.00 | 43 | 1011.7 |
| 20260508214507 | 15 | 5 | 3.2 | 12.9 | 0.00 | 0.00 | 0.00 | 42 | 1011.7 |
| 20260508213011 | 15 | 217 | 3.2 | 9.7 | 0.00 | 0.00 | 0.00 | 41 | 1011.7 |